When you browse on this site, cookies collect data to enhance your experience and personalize the content and advertising you see.
Visit our Privacy Policy to learn more. By continuing to use the site, you agree to this use of cookies and data.
  • în România
  • Lista ţărilor
  • Pe 7 zile
  • Temperatura apei
  • Meteo pe hartă
  • Widget-uri
  • user-avatar
    Intrare

    Meteo pe oră la Kirkenes

    Astăzi, 28 Mai, Joi

    Timp Temperatura Precipitaţii Vânt Presiune Umiditate
    00:00 +6°C° 0 mm 2 m/s 749 mmHg 88%
    01:00 +6°C° 0 mm 2 m/s 749 mmHg 89%
    02:00 +7°C° 0 mm 1 m/s 749 mmHg 94%
    03:00 +7°C° 0 mm 1 m/s 749 mmHg 94%
    04:00 +7°C° 0 mm 1 m/s 749 mmHg 94%
    05:00 +7°C° 0 mm 1 m/s 749 mmHg 94%
    06:00 +6°C° 0 mm 2 m/s 749 mmHg 91%
    07:00 +7°C° 0 mm 2 m/s 749 mmHg 88%
    08:00 +7°C° 0 mm 2 m/s 749 mmHg 85%
    09:00 +8°C° 0.2 mm 3 m/s 749 mmHg 81%
    10:00 +8°C° 0.2 mm 3 m/s 749 mmHg 77%
    11:00 +7°C° 0.2 mm 4 m/s 749 mmHg 73%
    12:00 +8°C° 0.2 mm 4 m/s 749 mmHg 69%
    13:00 +8°C° 0.2 mm 5 m/s 749 mmHg 64%
    14:00 +9°C° 0.2 mm 5 m/s 750 mmHg 60%
    15:00 +8°C° 0.2 mm 5 m/s 750 mmHg 58%
    16:00 +8°C° 0.2 mm 5 m/s 750 mmHg 57%
    17:00 +8°C° 0.2 mm 5 m/s 750 mmHg 55%
    18:00 +8°C° 0.1 mm 5 m/s 750 mmHg 57%
    19:00 +7°C° 0.1 mm 5 m/s 751 mmHg 59%
    20:00 +7°C° 0.1 mm 5 m/s 751 mmHg 61%
    21:00 +6°C° 0 mm 4 m/s 751 mmHg 66%
    22:00 +5°C° 0 mm 4 m/s 751 mmHg 71%
    23:00 +4°C° 0 mm 3 m/s 751 mmHg 76%

    Mâine, 29 Mai, Vineri

    Timp Temperatura Precipitaţii Vânt Presiune Umiditate
    00:00 +4°C° 0 mm 4 m/s 751 mmHg 78%
    01:00 +3°C° 0 mm 4 m/s 751 mmHg 80%
    02:00 +3°C° 0 mm 4 m/s 751 mmHg 82%
    03:00 +3°C° 0 mm 4 m/s 751 mmHg 81%
    04:00 +4°C° 0 mm 4 m/s 751 mmHg 80%
    05:00 +4°C° 0 mm 4 m/s 751 mmHg 78%
    06:00 +5°C° 0 mm 4 m/s 751 mmHg 73%
    07:00 +5°C° 0 mm 4 m/s 751 mmHg 68%
    08:00 +6°C° 0 mm 5 m/s 751 mmHg 63%
    09:00 +7°C° 0 mm 5 m/s 751 mmHg 60%
    10:00 +8°C° 0 mm 5 m/s 751 mmHg 57%
    11:00 +8°C° 0 mm 5 m/s 751 mmHg 53%
    12:00 +9°C° 0 mm 5 m/s 751 mmHg 53%
    13:00 +9°C° 0 mm 6 m/s 751 mmHg 52%
    14:00 +10°C° 0 mm 6 m/s 752 mmHg 52%
    15:00 +9°C° 0 mm 6 m/s 752 mmHg 57%
    16:00 +9°C° 0 mm 5 m/s 752 mmHg 61%
    17:00 +8°C° 0 mm 5 m/s 752 mmHg 66%
    18:00 +8°C° 0 mm 5 m/s 752 mmHg 68%
    19:00 +8°C° 0 mm 5 m/s 753 mmHg 71%
    20:00 +7°C° 0 mm 5 m/s 753 mmHg 73%
    21:00 +7°C° 0 mm 5 m/s 753 mmHg 75%
    22:00 +7°C° 0 mm 5 m/s 754 mmHg 77%
    23:00 +6°C° 0 mm 5 m/s 754 mmHg 79%

    Poimâine, 30 Mai, Sâmbătă

    Timp Temperatura Precipitaţii Vânt Presiune Umiditate
    00:00 +6°C° 0 mm 5 m/s 755 mmHg 81%
    01:00 +5°C° 0 mm 5 m/s 756 mmHg 84%
    02:00 +5°C° 0 mm 5 m/s 756 mmHg 86%
    03:00 +5°C° 0 mm 5 m/s 757 mmHg 81%
    04:00 +4°C° 0 mm 6 m/s 757 mmHg 76%
    05:00 +4°C° 0 mm 6 m/s 758 mmHg 71%
    06:00 +5°C° 0 mm 6 m/s 758 mmHg 68%
    07:00 +5°C° 0 mm 6 m/s 759 mmHg 64%
    08:00 +7°C° 0 mm 6 m/s 759 mmHg 61%
    09:00 +7°C° 0 mm 5 m/s 759 mmHg 62%
    10:00 +7°C° 0 mm 5 m/s 759 mmHg 63%
    11:00 +7°C° 0 mm 4 m/s 760 mmHg 64%
    12:00 +8°C° 0 mm 5 m/s 760 mmHg 64%
    13:00 +8°C° 0 mm 5 m/s 760 mmHg 64%
    14:00 +8°C° 0 mm 5 m/s 760 mmHg 64%
    15:00 +9°C° 0.1 mm 5 m/s 760 mmHg 67%
    16:00 +9°C° 0.1 mm 5 m/s 759 mmHg 69%
    17:00 +9°C° 0.1 mm 5 m/s 759 mmHg 71%
    18:00 +8°C° 0.7 mm 5 m/s 759 mmHg 77%
    19:00 +7°C° 0.7 mm 4 m/s 758 mmHg 84%
    20:00 +7°C° 0.7 mm 4 m/s 758 mmHg 91%
    21:00 +7°C° 0.3 mm 4 m/s 758 mmHg 92%
    22:00 +7°C° 0.3 mm 5 m/s 758 mmHg 92%
    23:00 +7°C° 0.3 mm 5 m/s 757 mmHg 93%

    31 Mai, Duminică

    Timp Temperatura Precipitaţii Vânt Presiune Umiditate
    00:00 +7°C° 0 mm 5 m/s 758 mmHg 91%
    01:00 +7°C° 0 mm 6 m/s 758 mmHg 90%
    02:00 +7°C° 0 mm 6 m/s 758 mmHg 88%
    03:00 +7°C° 0 mm 6 m/s 758 mmHg 89%
    04:00 +7°C° 0 mm 5 m/s 758 mmHg 89%
    05:00 +7°C° 0 mm 5 m/s 758 mmHg 90%
    06:00 +7°C° 0.2 mm 5 m/s 758 mmHg 90%
    07:00 +7°C° 0.2 mm 5 m/s 758 mmHg 91%
    08:00 +7°C° 0.2 mm 4 m/s 758 mmHg 91%
    09:00 +7°C° 0.4 mm 4 m/s 758 mmHg 91%
    10:00 +7°C° 0.4 mm 4 m/s 758 mmHg 91%
    11:00 +7°C° 0.4 mm 4 m/s 758 mmHg 91%
    12:00 +8°C° 0.5 mm 4 m/s 758 mmHg 90%
    13:00 +8°C° 0.5 mm 4 m/s 758 mmHg 89%
    14:00 +9°C° 0.5 mm 3 m/s 758 mmHg 88%
    15:00 +8°C° 0.2 mm 4 m/s 758 mmHg 88%
    16:00 +8°C° 0.2 mm 5 m/s 758 mmHg 88%
    17:00 +8°C° 0.2 mm 5 m/s 758 mmHg 87%
    18:00 +9°C° 0 mm 5 m/s 758 mmHg 86%
    19:00 +9°C° 0 mm 5 m/s 758 mmHg 85%
    20:00 +10°C° 0 mm 4 m/s 758 mmHg 84%
    21:00 +10°C° 0 mm 4 m/s 758 mmHg 86%
    22:00 +8°C° 0 mm 4 m/s 758 mmHg 88%
    23:00 +9°C° 0 mm 3 m/s 758 mmHg 90%

    1 Iunie, Luni

    Timp Temperatura Precipitaţii Vânt Presiune Umiditate
    00:00 +9°C° 0 mm 3 m/s 758 mmHg 90%
    01:00 +9°C° 0 mm 3 m/s 758 mmHg 91%
    02:00 +8°C° 0 mm 2 m/s 758 mmHg 91%
    03:00 +9°C° 0 mm 2 m/s 758 mmHg 87%
    04:00 +10°C° 0 mm 2 m/s 758 mmHg 83%
    05:00 +10°C° 0 mm 2 m/s 758 mmHg 78%
    06:00 +12°C° 0 mm 3 m/s 758 mmHg 72%
    07:00 +13°C° 0 mm 3 m/s 758 mmHg 65%
    08:00 +14°C° 0 mm 3 m/s 758 mmHg 58%
    09:00 +16°C° 0 mm 3 m/s 757 mmHg 54%
    10:00 +17°C° 0 mm 3 m/s 757 mmHg 51%
    11:00 +18°C° 0 mm 3 m/s 757 mmHg 47%
    12:00 +19°C° 0 mm 4 m/s 757 mmHg 46%
    13:00 +19°C° 0 mm 4 m/s 757 mmHg 45%
    14:00 +20°C° 0 mm 4 m/s 757 mmHg 45%
    15:00 +20°C° 0 mm 4 m/s 756 mmHg 46%
    16:00 +20°C° 0 mm 4 m/s 756 mmHg 46%
    17:00 +19°C° 0 mm 3 m/s 756 mmHg 47%
    18:00 +19°C° 0 mm 3 m/s 756 mmHg 49%
    19:00 +18°C° 0 mm 3 m/s 755 mmHg 52%
    20:00 +17°C° 0 mm 2 m/s 755 mmHg 54%
    21:00 +16°C° 0 mm 2 m/s 755 mmHg 60%
    22:00 +14°C° 0 mm 1 m/s 755 mmHg 65%
    23:00 +13°C° 0 mm 1 m/s 755 mmHg 71%

    2 Iunie, Marţi

    Timp Temperatura Precipitaţii Vânt Presiune Umiditate
    00:00 +12°C° 0 mm 1 m/s 754 mmHg 72%
    01:00 +12°C° 0 mm 1 m/s 754 mmHg 73%
    02:00 +12°C° 0 mm 1 m/s 754 mmHg 74%
    03:00 +13°C° 0 mm 1 m/s 754 mmHg 70%
    04:00 +14°C° 0 mm 1 m/s 753 mmHg 66%
    05:00 +15°C° 0 mm 1 m/s 753 mmHg 61%
    06:00 +15°C° 0 mm 2 m/s 753 mmHg 58%
    07:00 +16°C° 0 mm 2 m/s 752 mmHg 55%
    08:00 +17°C° 0 mm 2 m/s 752 mmHg 52%
    09:00 +18°C° 0 mm 3 m/s 752 mmHg 52%
    10:00 +18°C° 0 mm 3 m/s 751 mmHg 52%
    11:00 +19°C° 0 mm 4 m/s 751 mmHg 51%
    12:00 +19°C° 0.1 mm 4 m/s 750 mmHg 53%
    13:00 +19°C° 0.1 mm 4 m/s 750 mmHg 54%
    14:00 +19°C° 0.1 mm 4 m/s 749 mmHg 56%
    15:00 +19°C° 0.4 mm 4 m/s 749 mmHg 56%
    16:00 +19°C° 0.4 mm 4 m/s 749 mmHg 57%
    17:00 +19°C° 0.4 mm 4 m/s 748 mmHg 58%
    18:00 +18°C° 1 mm 4 m/s 748 mmHg 64%
    19:00 +17°C° 1 mm 4 m/s 747 mmHg 71%
    20:00 +14°C° 1 mm 4 m/s 746 mmHg 78%
    21:00 +14°C° 0.3 mm 3 m/s 746 mmHg 82%
    22:00 +13°C° 0.3 mm 3 m/s 746 mmHg 86%
    23:00 +13°C° 0.3 mm 2 m/s 746 mmHg 90%
    Arată mai mult